2023/02/23 00:00:00,27.9,-1.5
2023/02/23 00:10:00,27.9,-1.5
2023/02/23 00:20:00,27.9,-1.4
2023/02/23 00:30:00,27.9,-1.2
2023/02/23 00:40:00,27.9,-0.9
2023/02/23 00:50:00,27.9,-0.9
2023/02/23 01:00:00,27.9,-0.7
2023/02/23 01:10:00,27.9,-0.5
2023/02/23 01:20:00,27.8,-0.1
2023/02/23 01:30:00,27.8, 0.0
2023/02/23 01:40:00,27.9, 0.1
2023/02/23 01:50:00,27.8, 0.0
2023/02/23 02:00:00,27.8, 0.2
2023/02/23 02:10:00,28.0, 0.2
2023/02/23 02:20:00,28.1, 0.1
2023/02/23 02:30:00,28.1, 0.0
2023/02/23 02:40:00,28.1, 0.3
2023/02/23 02:50:00,27.8,-0.4
2023/02/23 03:00:00,27.8, 0.3
2023/02/23 03:10:00,27.8, 0.5
2023/02/23 03:20:00,27.7, 0.2
2023/02/23 03:30:00,27.8, 0.4
2023/02/23 03:40:00,27.7, 0.8
2023/02/23 03:50:00,27.7, 0.7
2023/02/23 04:00:00,27.7, 1.3
2023/02/23 04:10:00,27.7, 1.3
2023/02/23 04:20:00,27.8, 0.8
2023/02/23 04:30:00,27.7, 1.0
2023/02/23 04:40:00,27.6, 0.8
2023/02/23 04:50:00,27.6, 0.8
2023/02/23 05:00:00,27.6, 0.9
2023/02/23 05:10:00,27.6, 0.8
2023/02/23 05:20:00,27.6, 0.9
2023/02/23 05:30:00,27.6, 0.7
2023/02/23 05:40:00,27.6, 0.6
2023/02/23 05:50:00,27.6, 0.6
2023/02/23 06:00:00,27.5, 0.5
2023/02/23 06:10:00,27.5, 0.7
2023/02/23 06:20:00,27.5, 0.6
2023/02/23 06:30:00,27.5, 0.7
2023/02/23 06:40:00,27.5, 0.7
2023/02/23 06:50:00,27.4, 0.7
2023/02/23 07:00:00,27.3, 0.7
2023/02/23 07:10:00,27.3, 0.6
2023/02/23 07:20:00,27.4, 0.7
2023/02/23 07:30:00,27.4, 0.9
2023/02/23 07:40:00,27.5, 1.1
2023/02/23 07:50:00,27.5, 1.5
2023/02/23 08:00:00,27.5, 1.5
2023/02/23 08:10:00,27.6, 1.6
2023/02/23 08:20:00,27.6, 1.8
2023/02/23 08:30:00,27.7, 1.8
2023/02/23 08:40:00,27.5, 1.8
2023/02/23 08:50:00,27.5, 1.9
2023/02/23 09:00:00,27.6, 2.2
2023/02/23 09:10:00,27.7, 2.6
2023/02/23 09:20:00,27.7, 2.9
2023/02/23 09:30:00,27.7, 3.0
2023/02/23 09:40:00,27.8, 3.8
2023/02/23 09:50:00,28.0, 4.0
2023/02/23 10:00:00,27.9, 4.8
2023/02/23 10:10:00,28.1, 4.8
2023/02/23 10:20:00,28.2, 5.4
2023/02/23 10:30:00,27.9, 5.6
2023/02/23 10:40:00,27.8, 5.6
2023/02/23 10:50:00,27.7, 6.7
2023/02/23 11:00:00,27.8, 7.3
2023/02/23 11:10:00,27.3, 7.4
2023/02/23 11:20:00,26.8, 8.1
2023/02/23 11:30:00,26.8, 9.2
2023/02/23 11:40:00,---, 9.5
2023/02/23 11:50:00,52.2, 9.3
2023/02/23 12:00:00,68.9,10.2
2023/02/23 12:10:00,27.5, 8.8
2023/02/23 12:20:00,27.5,12.0
2023/02/23 12:30:00,27.3,10.9
2023/02/23 12:40:00,26.5, 7.9
2023/02/23 12:50:00,26.7, 7.6
2023/02/23 13:00:00,26.9, 8.9
2023/02/23 13:10:00,26.7, 8.1
2023/02/23 13:20:00,26.7, 8.2
2023/02/23 13:30:00,26.3, 8.1
2023/02/23 13:40:00,25.4, 6.8
2023/02/23 13:50:00,25.1, 7.0
2023/02/23 14:00:00,25.1, 7.1
2023/02/23 14:10:00,24.9, 7.1
2023/02/23 14:20:00,25.0, 7.4
2023/02/23 14:30:00,24.8, 6.8
2023/02/23 14:40:00,24.5, 5.8
2023/02/23 14:50:00,24.0, 4.3
2023/02/23 15:00:00,24.0, 4.3
2023/02/23 15:10:00,24.0, 4.2
2023/02/23 15:20:00,24.0, 4.1
2023/02/23 15:30:00,23.9, 3.9
2023/02/23 15:40:00,24.0, 4.2
2023/02/23 15:50:00,24.1, 4.6
2023/02/23 16:00:00,24.0, 4.7
2023/02/23 16:10:00,23.9, 4.4
2023/02/23 16:20:00,23.9, 4.4
2023/02/23 16:30:00,23.8, 4.0
2023/02/23 16:40:00,23.8, 4.1
2023/02/23 16:50:00,23.8, 3.8
2023/02/23 17:00:00,23.7, 3.5
2023/02/23 17:10:00,23.3, 3.4
2023/02/23 17:20:00,23.1, 3.2
2023/02/23 17:30:00,22.9, 2.9
2023/02/23 17:40:00,22.8, 2.8
2023/02/23 17:50:00,22.8, 2.6
2023/02/23 18:00:00,22.8, 2.5
2023/02/23 18:10:00,22.8, 2.4
2023/02/23 18:20:00,22.7, 2.3
2023/02/23 18:30:00,22.7, 2.1
2023/02/23 18:40:00,22.7, 2.2
2023/02/23 18:50:00,22.8, 1.9
2023/02/23 19:00:00,22.7, 1.9
2023/02/23 19:10:00,22.7, 2.0
2023/02/23 19:20:00,22.7, 1.7
2023/02/23 19:30:00,22.7, 2.2
2023/02/23 19:40:00,22.7, 1.8
2023/02/23 19:50:00,22.7, 1.8
2023/02/23 20:00:00,22.7, 1.5
2023/02/23 20:10:00,22.8, 1.4
2023/02/23 20:20:00,22.8, 1.3
2023/02/23 20:30:00,22.8, 1.4
2023/02/23 20:40:00,22.8, 1.3
2023/02/23 20:50:00,22.7, 1.0
2023/02/23 21:00:00,22.7, 0.9
2023/02/23 21:10:00,22.8, 0.8
2023/02/23 21:20:00,22.7, 0.5
2023/02/23 21:30:00,22.7, 0.5
2023/02/23 21:40:00,22.7, 0.3
2023/02/23 21:50:00,22.7, 0.7
2023/02/23 22:00:00,22.7, 0.5
2023/02/23 22:10:00,22.7, 0.7
2023/02/23 22:20:00,22.7, 0.7
2023/02/23 22:30:00,22.8, 1.0
2023/02/23 22:40:00,22.7, 0.9
2023/02/23 22:50:00,22.7, 1.1
2023/02/23 23:00:00,22.8, 1.1
2023/02/23 23:10:00,22.7, 1.4
2023/02/23 23:20:00,22.7, 1.2
2023/02/23 23:30:00,22.8, 1.3
2023/02/23 23:40:00,22.8, 1.3
2023/02/23 23:50:00,22.8, 1.2
